Skip Page Navigation
NASA JPL Caltech
NASA Logo - Jet Propulsion Laboratory + View the NASA Portal
+ Center for Near-Earth Object Studies
JPL Home Earth Solar System Stars & Galaxies Technology
JPL Solar System Dynamics
BODIES ORBITS EPHEMERIDES TOOLS PHYSICAL DATA DISCOVERY FAQ SITE MAP
JPL Small-Body Database Browser
Search: [ help ]  
48130 (2001 FF119)
Classification: Main-belt Asteroid          SPK-ID: 2048130
Ephemeris | Orbit Diagram | Orbital Elements | Mission Design | Physical Parameters | Discovery Circumstances | Close-Approach Data ]

[ show orbit diagram ]
Orbital Elements at Epoch 2459000.5 (2020-May-31.0) TDB
Reference: JPL 26 (heliocentric ecliptic J2000)
 Element Value Uncertainty (1-sigma)   Units 
e .1483651760833679 4.1895e-08  
a 2.630896052599858 1.2e-08 au
q 2.240562696498843 1.0865e-07 au
i 12.82049430221789 5.6816e-06 deg
node 298.740211073795 2.1824e-05 deg
peri 336.5397548892062 3.0711e-05 deg
M 106.6753656464534 2.1017e-05 deg
tp 2458538.634417773351
(2019-Feb-24.13441777)
9.0717e-05 TDB
period 1558.66922596409
4.27
1.0664e-05
2.92e-08
d
yr
n .2309662589105959 1.5803e-09 deg/d
Q 3.021229408700874 1.3781e-08 au
  Orbit Determination Parameters
   # obs. used (total)      1082  
   data-arc span      7763 days (21.25 yr)  
   first obs. used      1998-09-19  
   last obs. used      2019-12-21  
   planetary ephem.      DE431  
   SB-pert. ephem.      SB431-N16  
   condition code      0  
   norm. resid. RMS      .5419  
   source      ORB  
   producer      Otto Matic  
   solution date      2020-Feb-23 09:00:48  

Additional Information
 Earth MOID = 1.22978 au 
 Jupiter MOID = 2.16528 au 
 T_jup = 3.349 
[ show covariance matrix ]

Ephemeris | Orbit Diagram | Orbital Elements | Mission Design | Physical Parameters | Discovery Circumstances | Close-Approach Data ]

Physical Parameter Table
Parameter Symbol Value Units Sigma Reference Notes
absolute magnitude H 14.3   n/a MPO502477  
rotation period rot_per 4.320 h n/a LCDB (Rev. 2019-August); Warner et al., 2009 Result based on less than full coverage, so that the period may be wrong by 30 percent or so.
Published Reference List:
[Waszczak, A.; Chang, C.-K.; Ofeck, E.O.; Laher, F.; et al. (2015) Astron. J. 150, A75.]

48130 (2001 FF119)          Discovered 2001-Mar-20 by NEAT at Haleakala
Reference: 20020921/Numbers.arcLast Updated: 2004-04-19

[ show close-approach data ]
Alternate Designations
 2001 FF119 = 2000 AX133 
Ephemeris | Orbit Diagram | Orbital Elements | Mission Design | Physical Parameters | Discovery Circumstances | Close-Approach Data ]
ABOUT SSD CREDITS/AWARDS PRIVACY/COPYRIGHT GLOSSARY LINKS
FirstGov 2020-Aug-15 08:51 UT
(server date/time)  
NASA Home Page
Site Manager:   Ryan S. Park
Webmaster  Alan B. Chamberlin